Redmond, OR

10:23 PM PDT on June 22, 2018 (GMT -0700)
Roberts Field Airport

Weather History for KRDM - August, 2016

Change the Weather History Date:

Friday, August 19, 2016

  Actual Average Record
Temperature  
Mean Temperature 70 °F 65 °F  
Max Temperature 90 °F 84 °F 105 °F (1967)
Min Temperature 49 °F 45 °F 31 °F (1964)
Degree Days  
Heating Degree Days 0 3  
Month to date heating degree days 25 38  
Since 1 June heating degree days 251 324  
Since 1 July heating degree days 74 107  
Cooling Degree Days 5 2  
Month to date cooling degree days 62 61  
Year to date cooling degree days 205 187  
Since 1 June cooling degree days 202 182  
Growing Degree Days 20 (Base 50)    
Moisture  
Dew Point 35 °F    
Average Humidity 33    
Maximum Humidity 50    
Minimum Humidity 15    
Precipitation  
Precipitation 0.00 in 0.01 in 0.32 in (1979)
Month to date precipitation 0.02 0.30  
Year to date precipitation 5.49 5.53  
Sea Level Pressure  
Sea Level Pressure 30.00 in    
Wind  
Wind Speed 9 mph (NW)    
Max Wind Speed 18 mph    
Max Gust Speed 24 mph    
Visibility 10 miles    
Events      
T = Trace of Precipitation, MM = Missing Value Source: NWS Daily Summary

Daily Weather History Graph

Daily Weather History Graph

Search for Another Location

Airport or City:

Astronomy

Aug. 19, 2016 Rise Set
Actual Time 6:13 AM PDT 8:02 PM PDT
Civil Twilight 5:42 AM PDT 8:32 PM PDT
Nautical Twilight 5:04 AM PDT 9:10 PM PDT
Astronomical Twilight 4:23 AM PDT 9:51 PM PDT
Moon 8:54 PM PDT (8/19) 7:41 AM PDT (8/19)
Length of Visible Light 14h 50m
Length of Day
13h 48m
Full, 97% of the Moon is Illuminated
Aug 19
Full
Aug 24
Last Quarter
Sep 1
New
Sep 9
First Quarter
Sep 16
Full

Hourly Weather History & Observations

Time (PDT) Temp. Dew Point Humidity Pressure Visibility Wind Dir Wind Speed Gust Speed Precip Events Conditions
12:56 AM 59.0 °F 33.1 °F 38% 29.98 in 10.0 mi Calm Calm - N/A   Clear
1:56 AM 60.1 °F 33.1 °F 36% 29.97 in 10.0 mi SSE 5.8 mph - N/A   Clear
2:56 AM 57.0 °F 32.0 °F 39% 29.97 in 10.0 mi South 4.6 mph - N/A   Clear
3:56 AM 54.0 °F 32.0 °F 43% 29.99 in 10.0 mi South 3.5 mph - N/A   Clear
4:56 AM 54.0 °F 33.1 °F 45% 30.01 in 10.0 mi SSW 3.5 mph - N/A   Clear
5:56 AM 50.0 °F 32.0 °F 50% 30.03 in 10.0 mi South 4.6 mph - N/A   Clear
6:56 AM 57.0 °F 34.0 °F 42% 30.04 in 10.0 mi West 5.8 mph - N/A   Clear
7:56 AM 68.0 °F 33.1 °F 27% 30.04 in 10.0 mi NW 9.2 mph - N/A   Clear
8:56 AM 72.0 °F 35.1 °F 26% 30.06 in 10.0 mi NW 9.2 mph - N/A   Clear
9:56 AM 75.0 °F 37.0 °F 25% 30.07 in 10.0 mi NNW 12.7 mph - N/A   Clear
10:56 AM 77.0 °F 39.0 °F 25% 30.07 in 10.0 mi NW 10.4 mph - N/A   Clear
11:56 AM 81.0 °F 39.9 °F 23% 30.06 in 10.0 mi North 9.2 mph - N/A   Clear
12:56 PM 84.0 °F 41.0 °F 22% 30.04 in 10.0 mi North 10.4 mph - N/A   Clear
1:56 PM 86.0 °F 41.0 °F 20% 30.01 in 10.0 mi NNW 15.0 mph 19.6 mph N/A   Clear
2:56 PM 88.0 °F 37.9 °F 17% 29.99 in 10.0 mi NNW 13.8 mph 19.6 mph N/A   Clear
3:56 PM 89.1 °F 37.0 °F 16% 29.97 in 10.0 mi NNW 15.0 mph - N/A   Clear
4:56 PM 89.1 °F 35.1 °F 15% 29.96 in 10.0 mi NNW 15.0 mph - N/A   Clear
5:56 PM 87.1 °F 33.1 °F 15% 29.96 in 10.0 mi NW 16.1 mph - N/A   Clear
6:56 PM 84.9 °F 33.1 °F 16% 29.95 in 10.0 mi NNW 13.8 mph 21.9 mph N/A   Clear
7:56 PM 80.1 °F 34.0 °F 19% 29.95 in 10.0 mi NNW 12.7 mph - N/A   Clear
8:56 PM 75.0 °F 34.0 °F 22% 29.96 in 10.0 mi NW 9.2 mph - N/A   Clear
9:56 PM 72.0 °F 33.1 °F 24% 29.98 in 10.0 mi NW 4.6 mph - N/A   Clear
10:56 PM 59.0 °F 33.1 °F 38% 30.01 in 10.0 mi Calm Calm - N/A   Clear
11:56 PM 66.9 °F 33.1 °F 28% 30.00 in 10.0 mi WNW 6.9 mph - N/A   Clear